Showing default

KINEIS-5B, 62085

Orbit data source: Space-Track

KINEIS-5B, 62085 is a French payload satellite in SSO that was launched on Mon, 25 Nov 2024 UTC via an ELECTRON launch vehicle from the Rocket Lab Launch Complex (RLLC). Payload-class satellites include a variety of spacecraft equipped with specific instruments for various scientific and technological missions. These include communications satellites like Starlink; space stations such as the ISS; scientific satellites like the Hubble; Earth observation satellites from companies like Planet Labs, Umbra, and HawkEye 360; GPS; miniature CubeSats for education and research; and military/defense satellites.

Loading next visibility...
Identifier
62085, 2024-219E
Orbit
SSO
Last TLE update
10 hours ago
Origin
Manufacturer
KINEIS
Mission
Operational Commercial Communications
Bus & Motor
CUBESAT 16U, Unknown motor
Mass
28 kg wet, 28 kg dry
Launch date (UTC)
2024-11-25 (7 months ago)
Launch vehicle
ELECTRON
Launch site
Rocket Lab Launch Complex (RLLC)
Object type
Payload
Rocket body
Debris
Shape & HBR
Box + 2 Pan + 1 Ant, 1.6 m
Radar Cross Section
0.229 m², Medium (>0.1 m² and < 1m²)

Expand to show TLE details & history

TLE from 10 hours ago
0 KINEIS-5B
1 62085U 24219E   25186.54845562  .00000981  00000-0  14666-3 0  9994
2 62085  97.9719 348.4688 0001019 357.7399   2.3806 14.76925915 32812
Epoch: 2025-07-05T13:09Z
TLE epoch observation values (Epoch: 2025-07-05T13:09:46.565Z)
Latitude
-0.00006°
Longitude
-132.76013°
Altitude
641.345 km
Speed
7.538 km/s
True Right ascension
23h 13m 52s
True Declination
0° 00' 00"
Sunlit
Object was in daylight at epoch
Visualization orbit readout
Latitude
80.24271°
Longitude
101.7516°
Altitude
652.525 km
Speed
7.538 km/s
Apparent Right ascension
22h 25m 38s
Apparent Declination
33° 24' 54"
Sunlit
Object is in daylight
Visualization observer readout
Local Sidereal Time
11:17:22
Azimuth
11.191° NNE
Elevation
-15.7°
Doppler factor
1
Orbital elements
Apogee altitude
636.807 km
Perigee altitude
635.378 km
Semi-major axis
7,014.23 km
Eccentricity
0.0001
Inclination
97.9719°
RAAN
348.4688°
Arg. of periapsis
357.7399°
True anomaly
Unknown
Mean anomaly
2.3806°
Eccentric anomaly
Unknown
Mean motion
3.69465 °/min
Orbital period
97.44 mins
BSTAR
0.00014666
Loading maneuver chart data...
Loading SW <> Apogee altitude chart data...
Loading historical data...
Loading historical data...
Loading historical data...
Loading historical data...
Loading historical data...
Loading historical data...
Loading historical data...

KINEIS-5B Visibility forecast

Observer location: undefined°, undefined°

Span
Click to sort rows by Start time (UTC) header in descending order
Start Az.
Max El. time (UTC)
Max El. Az.
Max El.
End time (UTC)
End Az.
8 mins2025-07-05 23:29:02.139Z19.637° NNE2025-07-05 23:33:02.139Z97.906° ESE42.081°2025-07-05 23:37:02.139Z182.568° SSW
6 mins2025-07-06 10:27:02.139Z135.385° SSE2025-07-06 10:29:02.139Z84.151° E36.983°2025-07-06 10:33:02.139Z0.39° NNE
|